Tracking 29892 objects as of 21-Nov-2024
HD Live streaming from Space Station
objects crossing your sky now

STARLINK-3671

Track STARLINK-3671 now!
10-day predictions
STARLINK-3671 is classified as:


NORAD ID: 51972
Int'l Code: 2022-025S
Perigee: 552.6 km
Apogee: 556.2 km
Inclination: 53.1 °
Period: 95.6 minutes
Semi major axis: 6925 km
RCS: Unknown
Launch date: March 9, 2022
Source: United States (US)
Launch site: AIR FORCE EASTERN TEST RANGE (AFETR)
Your satellite tracking list
Your tracking list is empty




NASA's NSSDC Master Catalog

Two Line Element Set (TLE):
1 51972U 22025S   24325.50555793 -.00002078  00000-0 -12066-3 0  9997
2 51972  53.0563 359.5737 0002586  75.4148 284.7128 15.06375311150557
Source of the keplerian elements: AFSPC